Location: Borovka
(49.7741°N, 14.5280°E)
Time: 15:12:14
(UTC+00:00)

ESTCUBE 1 - Pass Details

Date: 20 March 2026
Orbit: 620 x 631 km, 97.7° (Epoch: 18 April)

Event Time Altitude Azimuth Distance (km) Brightness Sun altitude
Exits shadow 18:42:17 24° 93° (E) 1,321 ? -14.7°
Maximum altitude 18:43:34 28° 65° (ENE) 1,200 ? -14.9°
Drops below altitude 10° 18:47:17 10° 7° (N) 2,021 ? -15.5°
Sets 18:49:43 0° 356° (N) 2,936 ? -15.8°
